CZ-6A DEB, 61272

Orbit data source: Space-Track

CZ-6A DEB, 61272 is space debris in LEO originally from a launch on Tue, 06 Aug 2024 UTC launched from the Taiyaun Space Center, China (TSC). Debris objects in space refer to the collection of defunct objects orbiting the Earth. Examples of debris include non-operational satellites, rocket bodies, and fragments generated from explosions, collisions, or faulty payload assembly.

Loading next visibility...
Identifier
61272, 2024-140SH
Orbit
LEO
Country
Flag of CNCN / PRC
Related business
Manufacturer
SAST
Mission
Spacecraft
Bus & Motor
Unknown
Mass
Unknown
Launch date (UTC)
2024-08-06 (2 years ago)
Launch vehicle
Unknown
Launch site
Taiyaun Space Center, China (TSC)
Object type
Payload
Rocket body
Debris
Shape & HBR
Unknown shape, 0.1 m
Radar Cross Section
Medium (>0.1 m² and <1 m²)

Expand to show TLE details & history
Last TLE update: 14 hours ago

TLE from 14 hours ago
0 CZ-6A DEB
1 61272U 24140SH  26171.27539546  .00002150  00000-0  96451-3 0  9993
2 61272  89.0012 274.6059 0060152 177.7033 182.4446 14.21197324 94089
Epoch: 2026-06-20T06:36Z
TLE epoch observation values (Epoch: 2026-06-20T06:36:34.167Z)
Latitude
-0.00004°
Longitude
-93.02882°
Altitude
867.638 km
Speed
7.396 km/s
True Right ascension
18h 18m 25s
True Declination
0° 00' 00"
Sunlit
Object was in full shadow at epoch
Visualization orbit readout
Latitude
Unknown
Longitude
Unknown
Altitude
Unknown
Speed
Unknown
Apparent Right ascension
Unknown
Apparent Declination
Unknown
Sunlit
N/A
Visualization observer readout
Local Sidereal Time
07:22:55
Azimuth
Unknown
Elevation
Unknown
Doppler factor
Unknown
Orbital elements
Apogee altitude
861.543 km
Perigee altitude
774.968 km
Semi-major axis
7,196.393 km
Eccentricity
0.00602
Inclination
89.0012°
RAAN
274.6059°
Arg. of periapsis
177.7033°
True anomaly
182.41542°
Mean anomaly
182.4446°
Eccentric anomaly
182.42999°
Mean motion
3.55526 °/min
Orbital period
101.26 mins
BSTAR
0.00096451
Loading maneuver chart data...
Computing Atmospheric mass density...
Loading historical data...
Loading historical data...
Loading historical data...
Loading historical data...
Loading historical data...
Loading historical data...
Loading historical data...

Documentation

Showing up to 5 results
|